Hourly Data Report for October 16, 2013

All times are specified in Local Standard Time (LST). Add 1 hour to adjust for Daylight Saving Time where and when it is observed.

PENTICTON A
BRITISH COLUMBIA

49°27'45.000" N
119°36'08.000" W
344.40 m
1126146
71889
YYF

Related Data

No related data is available for this station

Download Data

Hourly Data (October 2013)
Hourly Data Report for October 16, 2013
Temp Definition
°C
Dew Point Temp Definition
°C
Rel Hum Definition
%
Wind Dir Definition
10's deg

Wind Spd Definition
km/h
Visibility Definition
km
Stn Press Definition
kPa
Hmdx Definition


Wind Chill Definition


Weather Definition


TIME
00:00 Legend Double Dagger 8.5 6.3 86 32 2 24.1 98.21     LegendNANA
01:00 Legend Double Dagger 8.0 6.5 90 35 9 24.1 98.22     Mostly Cloudy
02:00 Legend Double Dagger 7.9 6.4 90 33 7 24.1 98.16     LegendNANA
03:00 Legend Double Dagger 8.1 6.4 89 2 9 24.1 98.15     LegendNANA
04:00 Legend Double Dagger 8.5 6.5 87 35 10 24.1 98.15     Mostly Cloudy
05:00 Legend Double Dagger 8.5 6.3 86 36 7 24.1 98.19     LegendNANA
06:00 Legend Double Dagger 9.0 6.5 84 29 3 24.1 98.21     LegendNANA
07:00 Legend Double Dagger 9.1 6.7 85 17 2 24.1 98.25     Mostly Cloudy
08:00 Legend Double Dagger 10.0 7.6 85 10 4 24.1 98.27     LegendNANA
09:00 Legend Double Dagger 10.9 7.6 80 25 2 24.1 98.30     LegendNANA
10:00 Legend Double Dagger 11.9 7.6 75 36 12 24.1 98.31     Mostly Cloudy
11:00 Legend Double Dagger 12.9 6.8 66 6 8 24.1 98.29     LegendNANA
12:00 Legend Double Dagger 14.8 6.2 56 1 13 24.1 98.23     LegendNANA
13:00 Legend Double Dagger 13.9 6.8 62 35 17 24.1 98.25     Mostly Cloudy
14:00 Legend Double Dagger 14.9 6.8 58 1 20 24.1 98.27     LegendNANA
15:00 Legend Double Dagger 15.0 5.0 51 1 23 24.1 98.21     LegendNANA
16:00 Legend Double Dagger 12.3 6.2 66 32 13 24.1 98.22     Mostly Cloudy
17:00 Legend Double Dagger 11.0 5.2 67 34 4 24.1 98.18     LegendNANA
18:00 Legend Double Dagger 6.9 4.1 82 LegendMM LegendMM 24.1 98.21     LegendNANA
19:00 Legend Double Dagger 7.2 3.3 76 35 11 24.1 98.24     Mainly Clear
20:00 Legend Double Dagger 6.5 2.4 75 36 11 24.1 98.29     LegendNANA
21:00 Legend Double Dagger 6.8 2.3 73 35 14 24.1 98.31     LegendNANA
22:00 Legend Double Dagger 4.5 1.4 80 36 11 24.1 98.32     Clear
23:00 Legend Double Dagger 3.5 0.9 83 33 4 24.1 98.33     LegendNANA

Notes on Data Quality.

Legend

  • E = Estimated
  • M = Missing
  • NA = Not Available
  • ‡ = Partner data that is not subject to review by the National Climate Archives
Date modified: